Regional Weather Roundup
Issued by NWS

Home | Current Version | Previous Version | Graphics & Text | Print | Product List | Glossary On
Versions: 1 2 3 4 5 6 7 8 9 10 11 12 13 14 15 16 17 18 19 20 21 22 23 24 25 26 27 28 29 30 31 32 33 34 35 36 37 38 39 40 41 42 43 44 45 46 47 48 49 50
000
ASUS43 KOAX 150310
RWRNE

WEATHER ROUNDUP FOR NEBRASKA
NATIONAL WEATHER SERVICE OMAHA NE
900 PM CST THU DEC 14 2017

NOTES: SATELLITE DATA IS BEING USED TO AUGMENT CLOUD COVER ABOVE
       12000 FEET.
       "FAIR" INDICATES FEW OR NO CLOUDS BELOW 12,000 FEET WITH NO
       SIGNIFICANT WEATHER AND/OR OBSTRUCTIONS TO VISIBILITY.


NEZ001>004-019>022-054>056-150400-
NEBRASKA PANHANDLE

CITY           SKY/WX    TMP DP  RH WIND       PRES   REMARKS
SCOTTSBLUFF    CLEAR     19  15  84 NW6       30.21F WCI  11
ALLIANCE       CLEAR      9   8  96 W10       30.19S WCI  -5
CHADRON        CLEAR     19  14  81 SW10      30.20F WCI   7
GORDON         FAIR      23  19  85 W7        30.17F WCI  14
KIMBALL        CLOUDY    16  13  86 W8        30.21R WCI   5
SIDNEY         CLEAR     18  12  77 W8        30.22R WCI   8
$$

NEZ057>060-069>072-079>082-150400-
SOUTHWEST NEBRASKA

CITY           SKY/WX    TMP DP  RH WIND       PRES   REMARKS
NORTH PLATTE   CLOUDY    33  25  72 NW8       30.21S WCI  26
IMPERIAL       CLOUDY    32  23  69 N10       30.23S WCI  24
LEXINGTON      PTCLDY    30  26  84 NW8       30.21S WCI  22
MCCOOK         CLOUDY    33  24  69 NW10      30.23R WCI  25
OGALLALA       CLOUDY    29  21  73 W7        30.22S WCI  22
$$

NEZ005>010-023>029-035>040-094-150400-
NORTH CENTRAL NEBRASKA

CITY           SKY/WX    TMP DP  RH WIND       PRES   REMARKS
VALENTINE      CLOUDY    31  28  89 W7        30.17F WCI  24
AINSWORTH      CLOUDY    30  27  88 W7        30.17S WCI  23
BROKEN BOW     CLOUDY    33  27  78 N14       30.19R WCI  23
O`NEILL        CLOUDY    31  28  89 NW10      30.16F WCI  22
ORD            PTCLDY    32  26  78 NW12      30.17S WCI  23
THEDFORD       CLOUDY    31  28  88 NW3       30.20S
$$

NEZ041-046>049-061>064-073>077-083>087-150400-
SOUTH CENTRAL NEBRASKA

CITY           SKY/WX    TMP DP  RH WIND       PRES   REMARKS
GRAND ISLAND   MOCLDY    33  31  92 NW12      30.19R WCI  24
AURORA         CLOUDY    34  32  93 N12       30.17S WCI  25
HASTINGS       CLOUDY    34  30  85 N12       30.19R WCI  25
HEBRON         CLOUDY    37  33  84 NW8       30.18R WCI  31
HOLDREGE       CLOUDY    33  28  81 NW7       30.20S WCI  26
KEARNEY        CLOUDY    34  29  82 N9        30.20R WCI  27
YORK           CLOUDY    36  34  93 N13       30.16S WCI  27
$$

NEZ011>018-030>034-042>045-150400-
NORTHEAST NEBRASKA

CITY           SKY/WX    TMP DP  RH WIND       PRES   REMARKS
NORFOLK        CLOUDY    32  30  92 NW10      30.13S WCI  24
ALBION         CLOUDY    33  30  88 NW7       30.16S WCI  27
BLAIR          CLOUDY    38  30  74 NW13G18   30.11S WCI  30
COLUMBUS       CLOUDY    34  30  85 N16       30.16S WCI  24
FREMONT        CLOUDY    36  31  83 NW12G21   30.14S WCI  28
TEKAMAH        CLOUDY    36  26  67 NW13      30.12S WCI  27
WAYNE          CLOUDY    33  31  93 NW9       30.13S WCI  26
$$

NEZ050>053-065>068-078-088>093-150400-
SOUTHEAST NEBRASKA

CITY           SKY/WX    TMP DP  RH WIND       PRES   REMARKS
LINCOLN        CLOUDY    37  31  78 N12       30.16R WCI  29
OMAHA EPPLEY   CLOUDY    38  25  59 W10       30.12S WCI  31
BEATRICE       CLOUDY    36  34  93 NW12      30.15R WCI  28
FALLS CITY     MOCLDY    34  27  75 NW7       30.13R WCI  28
NEBRASKA CITY  CLOUDY    34  33  93 NW10      30.13R WCI  26
PLATTSMOUTH    CLOUDY    37  28  70 NW6       30.11S WCI  32
$$

NEZ044-045-051>053-067-150400-
OMAHA AREA

CITY           SKY/WX    TMP DP  RH WIND       PRES   REMARKS
OMAHA EPPLEY   CLOUDY    38  25  59 W10       30.12S WCI  31
BLAIR          CLOUDY    38  30  74 NW13G18   30.11S WCI  30
FREMONT        CLOUDY    36  31  83 NW12G21   30.14S WCI  28
MILLARD        CLOUDY    39  31  71 NW12      30.13S WCI  32
OFFUTT AFB     CLOUDY    38  26  61 NW10      30.11S WCI  31
PLATTSMOUTH    CLOUDY    37  28  70 NW6       30.11S WCI  32
WAHOO          CLOUDY    37  31  77 NW10      30.13F WCI  30
$$




USA.gov is the U.S. government's official web portal to all federal, state and local government web resources and services.